星链-3246 (STARLINK-3246 )

导读

STARLINK-3246是美国SpaceX公司星链星座的卫星,于2021年12月2日发射,属于全球规模最大的低轨卫星互联网星座组成部分。它运行在约550公里高度的近地轨道,依托星链星座的激光互联技术,可提供高速低延迟的宽带服务,旨在填补偏远地区网络覆盖空白,同时也服务于特殊场景通信需求,不过星链大规模部署也引发了太空安全与天文观测的争议。

Basic Information
目录编号:
49732
目录名称:
STARLINK-3246
国际标识:
2021-115J
轨道中心:
EARTH
卫星名称:
星链-3246
卫星全名:
星链-3246 (STARLINK-3246 )
卫星状态:
在轨 (已飞行1658 天)
发射日期:
2021-12-02 UTC
国别 :
美国 (US)
星等 :
--
Orbit Information
数据来源 国际轨道数据 AOE轨道数据
星历时间 2026-06-17T08:44:08+0800
21小时前
查看轨道信息
2026-06-13T00:00:00+0800
5天前
查看轨道信息
半长轴 6917.93km 6917.906km
偏心率 0.0001397 0.0002803
轨道倾角 53.161° 53.159°
近地点辐角 92.772° 59.499°
升交点赤经 73.223° 92.839°
平近点角 267.343° 343.310°
近地点 538.826km 537.829km
远地点 540.76km 541.709km
周期 95.439分钟 95.438分钟
每日圈数 15.088238 15.088319
Detailed Information
固有亮度:
5
最大亮度:
2.5
卫星平台:
Starlink v1.5
覆盖范围:
全球
运营商:
太空探索技术公司
运营商所在国:
美国
制造商(研发单位):
太空探索技术公司
制造商所在国:
美国
使用方式:
暂无
Satellite Introduction
星链(Starlink)计划是由太空探索技术公司(SpaceX)提出的一个巨型低轨卫星互联网星座项目,计划在2019年至2024年间在太空搭建由约1.2万颗卫星组成的“星链”网络,其中1584颗将部署在地球上空550千米处的近地轨道,并从2020年开始工作。该卫星仍在工作。
2D Orbit Map
3D Orbit Map
Orbit Altitude Analysis Chart
Orbit Inclination Analysis Chart
Orbit Comprehensive Analysis Chart
View Comprehensive Chart